Tracking 17782 objects as of 25-July-2016
HD Live streaming from Space Station
objects crossing your sky now

ARIANE 44L R/B

Track ARIANE 44L R/B now!


NORAD ID: 26696
Int'l Code: 2001-005C
Perigee: 304.2 km
Apogee: 32,339.4 km
Inclination: 7.3 °
Period: 567.0 minutes
Semi major axis: 22692 km
RCS: 23.3181 m2 (large)
Launch date: February 7, 2001
Source: France (FR)
Launch site: FRENCH GUIANA (FRGUI)

Note: This is a ROCKET BODY
Your satellite tracking list
Your tracking list is empty





NASA's NSSDC Master Catalog

Two Line Element Set (TLE):
1 26696U 01005C   16205.50821208  .00001133  00000-0  69885-3 0  9992
2 26696   7.3134  10.0002 7058441 323.1653   4.6328  2.53963092134891
Source of the keplerian elements: AFSPC

N2YO: 637